STARLINK-1331, 45578

Orbit data source: Space-Track

STARLINK-1331, 45578 is a payload satellite owned by SpaceX/Seattle (US) in LEO that was launched on Wed, 22 Apr 2020 UTC via an FALCON 9 launch vehicle from the Air Force Eastern Test Range (AFETR). Payload-class satellites include a variety of spacecraft equipped with specific instruments for various scientific and technological missions. These include communications satellites like Starlink; space stations such as the ISS; scientific satellites like the Hubble; Earth observation satellites from companies like Planet Labs, Umbra, and HawkEye 360; GPS; miniature CubeSats for education and research; and military/defense satellites.

Loading next visibility...
Identifier
45578, 2020-025AZ
Orbit
LEO
Country
Flag of USUS
Related business
Manufacturer
SpaceX/Seattle
Mission
Partially operational Commercial Communications
Bus & Motor
STARLINK, Unknown motor
Mass
260 kg wet, ~248 kg dry
Launch date (UTC)
2020-04-22 (6 years ago)
Launch vehicle
FALCON 9
Launch site
Air Force Eastern Test Range (AFETR)
Object type
Payload
Rocket body
Debris
Shape & HBR
Box + 1 Pan, 10.1 m
Radar Cross Section
13.562 m², Large (>1 m²)

Expand to show TLE details & history
Last TLE update: 7 hours ago

TLE from 7 hours ago
0 STARLINK-1331
1 45578U 20025AZ  26073.60568669  .00104559  00000-0  18689-2 0  9990
2 45578  53.0526  41.6212 0005220 103.2861 256.8729 15.49205786326443
Epoch: 2026-03-14T14:32Z
TLE epoch observation values (Epoch: 2026-03-14T14:32:11.330Z)
Latitude
-0°
Longitude
11.34953°
Altitude
420.751 km
Speed
7.66 km/s
True Right ascension
02h 46m 29s
True Declination
0° 00' 00"
Sunlit
Object was in daylight at epoch
Visualization orbit readout
Latitude
Unknown
Longitude
Unknown
Altitude
Unknown
Speed
Unknown
Apparent Right ascension
Unknown
Apparent Declination
Unknown
Sunlit
N/A
Visualization observer readout
Local Sidereal Time
01:51:26
Azimuth
Unknown
Elevation
Unknown
Doppler factor
Unknown
Orbital elements
Apogee altitude
422.872 km
Perigee altitude
415.776 km
Semi-major axis
6,797.461 km
Eccentricity
0.00052
Inclination
53.0526°
RAAN
41.6212°
Arg. of periapsis
103.2861°
True anomaly
256.81465°
Mean anomaly
256.8729°
Eccentric anomaly
256.84378°
Mean motion
3.87278 °/min
Orbital period
92.96 mins
BSTAR
0.0018689
Loading maneuver chart data...
Computing Atmospheric mass density...

Documentation

Showing up to 5 results
|